Airfield :
LOGIN :

Register | Disclaimer

   EN    FR    IT 

 










Legend :    VFR   Marginal VFR   IFR   Intensive IFR   Very Intensive IFR
Visi :
Ceiling :
>= 8 km
>= 3000ft
5 to 8 km
1000 to 3000 ft
1500m to 5 km
500 to 1000 ft
800 to 1500m
200 to 500 ft
< 800m
< 200 ft
Symbols :   Thunderstorms  Fog  Heavy snow  Heavy precipitations  Wind > 20 kt
SIGMETs :     Misc.  Thunderstorms  Icing  Turbulence  Mountain Waves  Volcanic Ashes







- Airport Elevation : 1959 ft
- IATA code : HOQ


EDQM - Hof Plauen

CURRENT METAR :
  • 211520Z VRB02KT CAVOK 13/07 Q1021

EXPIRED METARs :
  • 211450Z 32003KT 280V350 9999 FEW025 BKN055 13/07 Q1021
  • 211420Z VRB03KT 9999 FEW025 BKN059 13/07 Q1021
  • 211350Z 25005KT 210V300 9999 FEW025 BKN059 13/07 Q1021
  • 211320Z 25005KT 210V290 9999 FEW025 BKN057 12/07 Q1021
  • 211250Z VRB02KT 9999 BKN023 OVC059 13/08 Q1021

TAF TAF EDQM
Valid from the 21 at 15:00 until the 22 at 00:00 UTC


211400Z 2115/2124 VRB03KT 9999 FEW030 SCT045
TEMPO 2115/2116 27005KT
PROB30
TEMPO 2123/2124 3000 BCFG
No reported NOTAMs for that airfield.



MET'MAP, your aeronautical weather chart ! - Copyright ORBIFLY December 2007 - Disclaimer

ORBIFLY MET'MAP TEAM :

Programming & Development : Alexandra Zaïnal
Concept & Development : Baudouin d'Aumeries
Co-Development & Prog : Marc-Olivier Méhu
Technical & hardware support : Manuel Goepfert

Contact : metmap@orbifly.com




SOURCES & CREDITS :

   NOAA